Visalia, CA

7:34 PM PDT on October 18, 2019 (GMT -0700)
Visalia Municipal

Weather History for KVIS - August, 2019

Change the Weather History Date:

Monday, August 12, 2019

  Actual Average Record
Temperature  
Mean Temperature 76 °F -  
Max Temperature 93 °F 95 °F 115 °F (1933)
Min Temperature 61 °F 64 °F 53 °F (1945)
Cooling Degree Days 11    
Growing Degree Days 26 (Base 50)    
Moisture  
Dew Point 57 °F    
Average Humidity 52    
Maximum Humidity 87    
Minimum Humidity 27    
Precipitation  
Precipitation 0.00 in - - ()
Sea Level Pressure  
Sea Level Pressure 29.96 in    
Wind  
Wind Speed 5 mph (WNW)    
Max Wind Speed 13 mph    
Max Gust Speed 16 mph    
Visibility 10 miles    
Events      
Averages and records for this station are not official NWS values.
T = Trace of Precipitation, MM = Missing Value Source: NWS Daily Summary

Daily Weather History Graph

Daily Weather History Graph

Search for Another Location

Airport or City:

Astronomy

Aug. 12, 2019 Rise Set
Actual Time 6:12 AM PDT 7:51 PM PDT
Civil Twilight 5:45 AM PDT 8:19 PM PDT
Nautical Twilight 5:12 AM PDT 8:52 PM PDT
Astronomical Twilight 4:37 AM PDT 9:27 PM PDT
Moon 6:21 PM PDT (8/12) 3:30 AM PDT (8/12)
Length of Visible Light 14h 33m
Length of Day
13h 38m
Waxing Gibbous, 93% of the Moon is Illuminated
Aug 12
Waxing Gibbous
Aug 15
Full
Aug 23
Last Quarter
Aug 30
New
Sep 5
First Quarter

Hourly Weather History & Observations

Time (PDT) Temp. Heat Index Dew Point Humidity Pressure Visibility Wind Dir Wind Speed Gust Speed Precip Events Conditions
12:56 AM 69.1 °F - 55.0 °F 61% 29.97 in 10.0 mi NW 5.8 mph - N/A   Clear
1:56 AM 69.1 °F - 55.9 °F 63% 29.97 in 10.0 mi NW 3.5 mph - N/A   Clear
2:56 AM 66.0 °F - 55.0 °F 68% 29.97 in 10.0 mi NNW 5.8 mph - N/A   Clear
3:56 AM 64.9 °F - 55.0 °F 70% 29.97 in 10.0 mi NNW 3.5 mph - N/A   Clear
4:56 AM 61.0 °F - 55.9 °F 83% 29.98 in 10.0 mi Calm Calm - N/A   Clear
5:56 AM 62.1 °F - 57.0 °F 84% 29.99 in 10.0 mi Calm Calm - N/A   Clear
6:56 AM 61.0 °F - 57.0 °F 87% 30.01 in 10.0 mi Calm Calm - N/A   Clear
7:56 AM 66.0 °F - 57.9 °F 75% 30.02 in 10.0 mi Calm Calm - N/A   Clear
8:56 AM 70.0 °F - 57.0 °F 63% 30.02 in 10.0 mi Calm Calm - N/A   Clear
9:56 AM 75.9 °F - 57.9 °F 54% 30.02 in 10.0 mi SSW 4.6 mph - N/A   Clear
10:56 AM 79.0 °F - 59.0 °F 50% 30.02 in 10.0 mi Variable 3.5 mph - N/A   Clear
11:56 AM 82.9 °F 82.8 °F 59.0 °F 44% 30.01 in 10.0 mi South 5.8 mph - N/A   Clear
12:56 PM 87.1 °F 86.5 °F 59.0 °F 39% 29.99 in 10.0 mi WNW 6.9 mph - N/A   Clear
1:56 PM 90.0 °F 88.8 °F 57.9 °F 34% 29.96 in 10.0 mi WNW 10.4 mph - N/A   Clear
2:56 PM 91.9 °F 90.3 °F 55.9 °F 30% 29.94 in 10.0 mi WNW 11.5 mph - N/A   Clear
3:56 PM 91.9 °F 90.3 °F 55.9 °F 30% 29.92 in 10.0 mi West 12.7 mph 16.1 mph N/A   Clear
4:56 PM 91.9 °F 90.3 °F 55.9 °F 30% 29.90 in 8.0 mi West 9.2 mph - N/A   Clear
5:56 PM 91.9 °F 89.5 °F 54.0 °F 27% 29.89 in 10.0 mi WNW 9.2 mph - N/A   Clear
6:56 PM 89.1 °F 88.0 °F 57.9 °F 35% 29.89 in 10.0 mi West 6.9 mph - N/A   Clear
7:56 PM 84.0 °F 83.5 °F 57.9 °F 41% 29.89 in 10.0 mi West 5.8 mph - N/A   Clear
8:56 PM 80.1 °F 80.6 °F 57.9 °F 47% 29.91 in 10.0 mi West 5.8 mph - N/A   Clear
9:56 PM 80.1 °F 80.0 °F 54.0 °F 40% 29.93 in 10.0 mi NW 4.6 mph - N/A   Clear
10:56 PM 78.1 °F - 55.0 °F 45% 29.94 in 10.0 mi Calm Calm - N/A   Clear
11:56 PM 71.1 °F - 55.9 °F 59% 29.94 in 10.0 mi ESE 3.5 mph - N/A   Clear